カタログに戻る

COSMOS 1229

運用中軍事LEO
NORAD 12108·PAYLOAD·🇷🇺 Russia

打ち上げ Dec 23, 1980 から Plesetsk Cosmodrome

Loading…

次のパス (今後24時間)

TLE

最新Source: Space-Track

元期: Sep 14, 2026, 10:50 UTC

1 12108U 80102B   26257.45201543 -.00000022  00000-0 -35914-4 0  9991
2 12108  73.9909 271.7205 0032342 334.1593  95.3346 12.56124674 96628

AllMySatでCOSMOS 1229をリアルタイム追跡

Download on the App Store